Погода в Гремяче

Украина / Черниговская область     52°20′26″N   33°17′18″E
В апреле 2022 года жителям России запретили посещать сайт meteo.paraplan.net по решению Генеральной прокуратуры. Аудитория сайта уменьшилась в 10 раз. Владельцы сайта не видят смысла в поддержке погодного сервера в таких условиях. Сайт будет закрыт в октябре.
темп.,
°C
ветер,
м/с
пор.,
м/с
влажн.,
%
обл.,
%
осадки,
мм/ч
давл.,
гПа
погр.,
м
3 октября, пн
пн300:00+9юз71293100 0.0 991598
03:00+7юз81190100 0.0 991843
06:00+5зюз91393100 0.3 991933
09:00+5зюз91396100 1.3 993962
12:00+6зюз91394100 1.9 9941216
15:00+6юз91493100 3.2 9961291
18:00+7юз81690100 1.9 9981262
21:00+7юз71291100 5.1 999856
4 октября, вт
вт400:00+6юз61292100 4.1 1001878
03:00+6ююз61193100 4.8 10011100
06:00+6ююз61191100 0.4 10021030
09:00+6юз51092100 2.0 1004917
12:00+6юз61191100 1.6 1006944
15:00+7юз61191100 2.5 10071105
18:00+7юз61090100 0.6 10091020
21:00+7зюз5993100 1.5 1010925
5 октября, ср
ср500:00+7зюз5991100 0.3 1011560
03:00+7з599399 0.6 1013532
06:00+7з5994100 0.5 1014713
09:00+8зсз6108877 0.7 1016762
12:00+10зсз787191 0.2 10181184
15:00+11зсз6867100 0.3 10191291
18:00+9з5980100 0.2 1021390
21:00+8зюз4987100 0.2 1021272
6 октября, чт
чт600:00+9зюз41187100 0.0 1022386
03:00+8зюз51191100 0.0 1021268
06:00+7зюз389595 0.0 1021192
09:00+10юз4985100 0.0 1021282
12:00+12юз598152 0.0 1021385
15:00+17зюз69615 0.0 1019935
18:00+13зюз498059 0.0 1020172
21:00+11з41290100 0.0 1021273
7 октября, пт
пт700:00+11зсз512945 0.0 1022357
03:00+9зсз410950 0.0 1024273
06:00+7зсз49950 0.0 1025192
09:00+9зсз48850 0.0 1026290
12:00+14зсз56630 0.0 1026755
15:00+15зсз56560 0.0 10251017
18:00+11сз34750 0.0 102647
21:00+8ссз22902 0.0 102717